• In France
  • List of Countries
  • For 7 days
  • Water Temperature
  • Satellite Maps
  • Weather Map
  • Weather Widgets
  • user-avatar
    Login

    Hourly Weather Shamilkala

    Today, 22 August, Wednesday

    Time Temperature Precipitation Wind Pressure Humidity
    00:00 +20°C° 0 mm 2 mps 709 mmHg 72%
    01:00 +19°C° 0 mm 2 mps 709 mmHg 69%
    02:00 +19°C° 0 mm 2 mps 709 mmHg 66%
    03:00 +19°C° 0 mm 2 mps 709 mmHg 65%
    04:00 +19°C° 0 mm 2 mps 709 mmHg 65%
    05:00 +19°C° 0 mm 2 mps 709 mmHg 64%
    06:00 +20°C° 0 mm 2 mps 709 mmHg 63%
    07:00 +23°C° 0 mm 2 mps 709 mmHg 57%
    08:00 +25°C° 0 mm 1 mps 709 mmHg 52%
    09:00 +27°C° 0 mm 1 mps 710 mmHg 47%
    10:00 +28°C° 0 mm 2 mps 710 mmHg 46%
    11:00 +29°C° 0 mm 2 mps 709 mmHg 45%
    12:00 +29°C° 0 mm 2 mps 709 mmHg 44%
    13:00 +29°C° 0.1 mm 2 mps 709 mmHg 46%
    14:00 +29°C° 0.1 mm 3 mps 709 mmHg 48%
    15:00 +29°C° 0.1 mm 3 mps 709 mmHg 49%
    16:00 +28°C° 0.2 mm 2 mps 709 mmHg 55%
    17:00 +27°C° 0.2 mm 2 mps 709 mmHg 60%
    18:00 +26°C° 0.2 mm 1 mps 709 mmHg 65%
    19:00 +25°C° 0.1 mm 1 mps 709 mmHg 68%
    20:00 +24°C° 0.1 mm 1 mps 709 mmHg 70%
    21:00 +23°C° 0.1 mm 1 mps 709 mmHg 73%
    22:00 +21°C° 0 mm 2 mps 709 mmHg 74%
    23:00 +21°C° 0 mm 2 mps 709 mmHg 74%

    Tomorrow, 23 August, Thursday

    Time Temperature Precipitation Wind Pressure Humidity
    00:00 +21°C° 0 mm 2 mps 709 mmHg 75%
    01:00 +20°C° 0 mm 2 mps 709 mmHg 75%
    02:00 +20°C° 0 mm 2 mps 709 mmHg 75%
    03:00 +19°C° 0 mm 2 mps 709 mmHg 75%
    04:00 +20°C° 0 mm 2 mps 709 mmHg 74%
    05:00 +20°C° 0 mm 2 mps 710 mmHg 72%
    06:00 +20°C° 0 mm 2 mps 710 mmHg 71%
    07:00 +23°C° 0 mm 2 mps 710 mmHg 64%
    08:00 +25°C° 0 mm 2 mps 710 mmHg 56%
    09:00 +27°C° 0 mm 2 mps 711 mmHg 49%
    10:00 +28°C° 0 mm 2 mps 711 mmHg 47%
    11:00 +29°C° 0 mm 3 mps 711 mmHg 45%
    12:00 +30°C° 0 mm 3 mps 711 mmHg 43%
    13:00 +29°C° 0 mm 3 mps 711 mmHg 44%
    14:00 +29°C° 0 mm 3 mps 711 mmHg 45%
    15:00 +29°C° 0 mm 3 mps 711 mmHg 46%
    16:00 +28°C° 0 mm 3 mps 711 mmHg 51%
    17:00 +27°C° 0 mm 2 mps 711 mmHg 56%
    18:00 +26°C° 0 mm 2 mps 711 mmHg 60%
    19:00 +24°C° 0 mm 2 mps 711 mmHg 65%
    20:00 +23°C° 0 mm 2 mps 711 mmHg 70%
    21:00 +22°C° 0 mm 1 mps 711 mmHg 74%
    22:00 +21°C° 0 mm 1 mps 711 mmHg 75%
    23:00 +21°C° 0 mm 1 mps 711 mmHg 75%

    Day after tomorrow, 24 August, Friday

    Time Temperature Precipitation Wind Pressure Humidity
    00:00 +20°C° 0 mm 2 mps 711 mmHg 76%
    01:00 +19°C° 0 mm 2 mps 711 mmHg 76%
    02:00 +19°C° 0 mm 2 mps 711 mmHg 76%
    03:00 +19°C° 0 mm 2 mps 711 mmHg 75%
    04:00 +19°C° 0 mm 2 mps 711 mmHg 75%
    05:00 +19°C° 0 mm 2 mps 711 mmHg 75%
    06:00 +20°C° 0 mm 2 mps 711 mmHg 74%
    07:00 +23°C° 0 mm 2 mps 711 mmHg 69%
    08:00 +25°C° 0 mm 3 mps 712 mmHg 63%
    09:00 +26°C° 0 mm 3 mps 712 mmHg 58%
    10:00 +27°C° 0 mm 4 mps 712 mmHg 57%
    11:00 +28°C° 0 mm 4 mps 712 mmHg 57%
    12:00 +28°C° 0 mm 4 mps 711 mmHg 56%
    13:00 +28°C° 0.1 mm 4 mps 711 mmHg 58%
    14:00 +28°C° 0.1 mm 4 mps 711 mmHg 59%
    15:00 +28°C° 0.1 mm 4 mps 710 mmHg 60%
    16:00 +27°C° 0.2 mm 4 mps 710 mmHg 65%
    17:00 +26°C° 0.2 mm 3 mps 710 mmHg 69%
    18:00 +24°C° 0.2 mm 3 mps 710 mmHg 74%
    19:00 +22°C° 0.1 mm 3 mps 710 mmHg 76%
    20:00 +21°C° 0.1 mm 2 mps 710 mmHg 79%
    21:00 +20°C° 0.1 mm 2 mps 710 mmHg 81%
    22:00 +20°C° 0 mm 2 mps 710 mmHg 79%
    23:00 +20°C° 0 mm 2 mps 710 mmHg 77%

    25 August, Saturday

    Time Temperature Precipitation Wind Pressure Humidity
    00:00 +19°C° 0 mm 2 mps 710 mmHg 75%
    01:00 +19°C° 0 mm 2 mps 709 mmHg 74%
    02:00 +19°C° 0 mm 2 mps 709 mmHg 73%
    03:00 +19°C° 0 mm 2 mps 709 mmHg 72%
    04:00 +19°C° 0 mm 2 mps 709 mmHg 71%
    05:00 +19°C° 0 mm 2 mps 709 mmHg 71%
    06:00 +20°C° 0 mm 2 mps 709 mmHg 70%
    07:00 +23°C° 0 mm 2 mps 709 mmHg 62%
    08:00 +25°C° 0 mm 2 mps 709 mmHg 55%
    09:00 +28°C° 0 mm 2 mps 709 mmHg 48%
    10:00 +29°C° 0 mm 3 mps 709 mmHg 46%
    11:00 +29°C° 0 mm 3 mps 709 mmHg 45%
    12:00 +30°C° 0 mm 4 mps 709 mmHg 43%
    13:00 +30°C° 0.2 mm 4 mps 709 mmHg 44%
    14:00 +30°C° 0.2 mm 4 mps 708 mmHg 45%
    15:00 +30°C° 0.2 mm 4 mps 708 mmHg 47%
    16:00 +28°C° 0.1 mm 3 mps 708 mmHg 52%
    17:00 +27°C° 0.1 mm 3 mps 708 mmHg 57%
    18:00 +26°C° 0.1 mm 2 mps 708 mmHg 62%
    19:00 +25°C° 0 mm 2 mps 708 mmHg 67%
    20:00 +23°C° 0 mm 2 mps 708 mmHg 71%
    21:00 +21°C° 0 mm 2 mps 708 mmHg 75%
    22:00 +21°C° 0 mm 2 mps 708 mmHg 75%
    23:00 +21°C° 0 mm 2 mps 708 mmHg 75%

    26 August, Sunday

    Time Temperature Precipitation Wind Pressure Humidity
    00:00 +21°C° 0 mm 2 mps 707 mmHg 75%
    01:00 +20°C° 0 mm 2 mps 707 mmHg 74%
    02:00 +21°C° 0 mm 1 mps 707 mmHg 74%
    03:00 +21°C° 0 mm 1 mps 707 mmHg 73%
    04:00 +21°C° 0 mm 1 mps 707 mmHg 71%
    05:00 +21°C° 0 mm 1 mps 707 mmHg 69%
    06:00 +21°C° 0 mm 1 mps 707 mmHg 67%
    07:00 +24°C° 0 mm 2 mps 707 mmHg 60%
    08:00 +26°C° 0 mm 2 mps 708 mmHg 53%
    09:00 +28°C° 0 mm 2 mps 708 mmHg 47%
    10:00 +29°C° 0 mm 3 mps 708 mmHg 45%
    11:00 +30°C° 0 mm 3 mps 707 mmHg 42%
    12:00 +32°C° 0 mm 4 mps 707 mmHg 40%
    13:00 +32°C° 0 mm 4 mps 707 mmHg 41%
    14:00 +30°C° 0 mm 4 mps 707 mmHg 41%
    15:00 +30°C° 0 mm 4 mps 706 mmHg 41%
    16:00 +29°C° 0 mm 4 mps 706 mmHg 47%
    17:00 +27°C° 0 mm 3 mps 706 mmHg 53%
    18:00 +26°C° 0 mm 3 mps 706 mmHg 58%
    19:00 +25°C° 0 mm 2 mps 706 mmHg 62%
    20:00 +23°C° 0 mm 2 mps 706 mmHg 66%
    21:00 +21°C° 0 mm 2 mps 706 mmHg 70%
    22:00 +21°C° 0.1 mm 2 mps 706 mmHg 68%
    23:00 +21°C° 0.1 mm 2 mps 706 mmHg 66%

    27 August, Monday

    Time Temperature Precipitation Wind Pressure Humidity
    00:00 +20°C° 0.1 mm 2 mps 706 mmHg 64%
    01:00 +20°C° 0 mm 2 mps 706 mmHg 63%
    02:00 +21°C° 0 mm 1 mps 706 mmHg 61%
    03:00 +21°C° 0 mm 1 mps 706 mmHg 59%
    04:00 +21°C° 0 mm 1 mps 706 mmHg 59%
    05:00 +21°C° 0 mm 1 mps 706 mmHg 58%
    06:00 +21°C° 0 mm 1 mps 706 mmHg 58%
    07:00 +23°C° 0 mm 1 mps 707 mmHg 53%
    08:00 +25°C° 0 mm 2 mps 707 mmHg 48%
    09:00 +28°C° 0 mm 2 mps 707 mmHg 44%
    10:00 +28°C° 0 mm 2 mps 707 mmHg 43%
    11:00 +29°C° 0 mm 3 mps 707 mmHg 42%
    12:00 +30°C° 0 mm 3 mps 707 mmHg 41%
    13:00 +30°C° 0.2 mm 3 mps 707 mmHg 42%
    14:00 +29°C° 0.2 mm 3 mps 707 mmHg 44%
    15:00 +29°C° 0.2 mm 4 mps 707 mmHg 45%
    16:00 +28°C° 0.1 mm 3 mps 707 mmHg 51%
    17:00 +26°C° 0.1 mm 3 mps 707 mmHg 57%
    18:00 +25°C° 0.1 mm 2 mps 707 mmHg 63%
    19:00 +24°C° 0.2 mm 2 mps 707 mmHg 69%
    20:00 +22°C° 0.2 mm 1 mps 707 mmHg 74%
    21:00 +21°C° 0.2 mm 1 mps 708 mmHg 80%
    22:00 +21°C° 0.1 mm 1 mps 708 mmHg 80%
    23:00 +21°C° 0.1 mm 1 mps 708 mmHg 81%
    Show more